Showing default

GONETS M 15 (M25), 44906

Orbit data source: Space-Track

GONETS M 15 (M25), 44906 is a payload satellite owned by Gonets (CIS) in LEO that was launched on Thu, 26 Dec 2019 UTC via an ROKOT launch vehicle from the Plesetsk Missile And Space Complex (PKMTR). Payload-class satellites include a variety of spacecraft equipped with specific instruments for various scientific and technological missions. These include communications satellites like Starlink; space stations such as the ISS; scientific satellites like the Hubble; Earth observation satellites from companies like Planet Labs, Umbra, and HawkEye 360; GPS; miniature CubeSats for education and research; and military/defense satellites.

Loading next visibility...
Identifier
44906, 2019-096B
Orbit
LEO
Last TLE update
16 hours ago
Origin
Manufacturer
Resehetnev ISS
Mission
Operational Commercial Communications
Bus & Motor
STRELA-3M, Unknown motor
Mass
225 kg wet, 225 kg dry
Launch date (UTC)
2019-12-26 (6 years ago)
Launch vehicle
ROKOT
Launch site
Plesetsk Missile And Space Complex (PKMTR)
Object type
Payload
Rocket body
Debris
Shape & HBR
Cyl + 1 Ant, 7 m
Radar Cross Section
1.798 m², Large (>1 m²)

Expand to show TLE details & history

TLE from 16 hours ago
0 GONETS M 15 (M25)
1 44906U 19096B   25186.53289507  .00000011  00000-0  78021-5 0  9994
2 44906  82.5267 299.9312 0015456 207.6213 152.4047 12.42896628250583
Epoch: 2025-07-05T12:47Z
TLE epoch observation values (Epoch: 2025-07-05T12:47:22.134Z)
Latitude
-0°
Longitude
-175.6806°
Altitude
1,507.838 km
Speed
7.106 km/s
True Right ascension
19h 59m 43s
True Declination
0° 00' 00"
Sunlit
Object was in full shadow at epoch
Visualization orbit readout
Latitude
82.38835°
Longitude
-98.45226°
Altitude
1,513.56 km
Speed
7.112 km/s
Apparent Right ascension
04h 06m 00s
Apparent Declination
33° 41' 48"
Sunlit
Object is in daylight
Visualization observer readout
Local Sidereal Time
16:40:24
Azimuth
7.435° NNE
Elevation
-15.959°
Doppler factor
1
Orbital elements
Apogee altitude
1,503.862 km
Perigee altitude
1,479.535 km
Semi-major axis
7,869.835 km
Eccentricity
0.00155
Inclination
82.5267°
RAAN
299.9312°
Arg. of periapsis
207.6213°
True anomaly
Unknown
Mean anomaly
152.4047°
Eccentric anomaly
Unknown
Mean motion
3.10881 °/min
Orbital period
115.8 mins
BSTAR
0.0000078021
Loading maneuver chart data...
Loading SW <> Apogee altitude chart data...
Loading historical data...
Loading historical data...
Loading historical data...
Loading historical data...
Loading historical data...
Loading historical data...
Loading historical data...
Other satellites on launch #96 in the year 2019 (2019-12-26 UTC)

GONETS M 15 (M25) Visibility forecast

Observer location: undefined°, undefined°

Span
Click to sort rows by Start time (UTC) header in descending order
Start Az.
Max El. time (UTC)
Max El. Az.
Max El.
End time (UTC)
End Az.
8 mins2025-07-06 06:20:11.046Z104.416° ESE2025-07-06 06:24:11.046Z75.492° E15.042°2025-07-06 06:28:11.046Z46.911° ENE
16 mins2025-07-06 08:12:11.046Z181.77° SSW2025-07-06 08:19:11.046Z135.499° SSE44.773°2025-07-06 08:28:11.046Z9.074° NNE
10 mins2025-07-06 10:13:11.046Z262.359° W2025-07-06 10:17:11.046Z294.099° NW19.088°2025-07-06 10:23:11.046Z339.081° N
14 mins2025-07-06 18:24:11.046Z12.573° NNE2025-07-06 18:30:11.046Z70.876° E32.997°2025-07-06 18:38:11.046Z140.564° SSE
14 mins2025-07-06 20:20:11.046Z336.459° NNW2025-07-06 20:27:11.046Z271.782° WNW34.3°2025-07-06 20:34:11.046Z208.263° SW
|